This is the latest recevied weather packets stored in our database for station/object W5ZYX. If no packets are shown the sender has not sent any weather packets the latest 1 day(s).
| Time | Temp. | Humidity | Pressure | Rain* | Wind** | Luminosity | Snow |
|---|---|---|---|---|---|---|---|
| 1777969539 | 20.56° C | 88% | 1009 hPa | 0 mm | 1.34 m/s, 178° | - | - |
| 1777969237 | 20.56° C | 87% | 1009.1 hPa | 0 mm | 1.34 m/s, 174° | - | - |
| 1777968953 | 20.56° C | 87% | 1009.1 hPa | 0 mm | 0.89 m/s, 168° | - | - |
| 1777968640 | 20.56° C | 87% | 1009.2 hPa | 0 mm | 1.34 m/s, 166° | - | - |
| 1777968341 | 20.56° C | 87% | 1009.2 hPa | 0 mm | 1.34 m/s, 196° | - | - |
| 1777968054 | 20.56° C | 87% | 1009.3 hPa | 0 mm | 1.34 m/s, 211° | - | - |
| 1777967741 | 20.56° C | 87% | 1009.4 hPa | 0 mm | 0.89 m/s, 196° | - | - |
| 1777967439 | 20.56° C | 87% | 1009.4 hPa | 0 mm | 0.89 m/s, 144° | - | - |
| 1777967153 | 20.56° C | 87% | 1009.5 hPa | 0 mm | 1.34 m/s, 169° | - | - |
| 1777966842 | 20.56° C | 87% | 1009.6 hPa | 0 mm | 1.34 m/s, 130° | - | - |
| 1777966538 | 20.56° C | 87% | 1009.5 hPa | 0 mm | 0.89 m/s, 161° | - | - |
| 1777966256 | 20.56° C | 86% | 1009.4 hPa | 0 mm | 0.89 m/s, 153° | - | - |
| 1777965936 | 20.56° C | 86% | 1009.4 hPa | 0 mm | 0.89 m/s, 183° | - | - |
| 1777965637 | 20.56° C | 86% | 1009.5 hPa | 0 mm | 1.79 m/s, 174° | - | - |
| 1777965352 | 20.56° C | 86% | 1009.5 hPa | 0 mm | 0.89 m/s, 175° | - | - |
| 1777965039 | 20.56° C | 86% | 1009.7 hPa | 0 mm | 1.34 m/s, 198° | - | - |
| 1777964737 | 21.11° C | 85% | 1009.7 hPa | 0 mm | 1.79 m/s, 150° | - | - |
| 1777964464 | 21.11° C | 85% | 1009.8 hPa | 0 mm | 1.79 m/s, 174° | - | - |
| 1777964137 | 21.11° C | 85% | 1010 hPa | 0 mm | 0.89 m/s, 173° | - | - |
| 1777963836 | 21.11° C | 85% | 1010 hPa | 0 mm | 1.34 m/s, 178° | - | - |
| 1777963554 | 21.11° C | 85% | 1010.2 hPa | 0 mm | 1.34 m/s, 113° | - | - |
| 1777963239 | 21.11° C | 85% | 1010.2 hPa | 0 mm | 1.34 m/s, 153° | - | - |
| 1777962936 | 21.11° C | 85% | 1010.2 hPa | 0 mm | 1.34 m/s, 138° | - | - |
| 1777962649 | 21.11° C | 85% | 1010.2 hPa | 0 mm | 2.24 m/s, 170° | - | - |
| 1777962336 | 21.11° C | 85% | 1010 hPa | 0 mm | 1.34 m/s, 155° | - | - |
* Rain latest hour (hover to see other rain measurements)
** Current wind speed in m/s (hover to see current wind gust speed)